Volver al catálogo

STARLINK-34277

ActivoComunicacionesSSO
NORAD 64156·PAYLOAD·🇺🇸 United States

Lanzado May 27, 2025 desde Vandenberg Space Force Base

Loading…

Próximos Pases (próximas 24 horas)

TLE

ActualizadoSource: CelesTrak SupGP

Época: Sep 15, 2026, 03:35 UTC

1 64156C 25112L   26258.14979167  .00004655  00000+0  14447-3 0  2580
2 64156  97.2829 305.3385 0000834  91.6330 167.3055 15.33442871    11

Sigue STARLINK-34277 en tiempo real con AllMySat

Download on the App Store